Regional Weather Roundup
Issued by NWS Upton, NY

Current Version | Previous Version | Text Only | Print | Product List | Glossary On
Versions: 1 2 3 4 5 6 7 8 9 10 11 12 13 14 15 16 17 18 19 20 21 22 23 24 25 26 27 28 29 30 31 32 33 34 35 36 37 38 39 40 41 42 43 44 45 46 47 48 49 50
000
ASUS41 KOKX 082208
RWROKX

REGIONAL WEATHER ROUNDUP
NATIONAL WEATHER SERVICE NEW YORK NY
500 PM EST THU DEC 08 2016

NOTE: "FAIR" INDICATES FEW OR NO CLOUDS BELOW 12,000 FEET WITH NO
SIGNIFICANT WEATHER AND/OR OBSTRUCTIONS TO VISIBILITY.

NYZ071-072-176-178-NJZ106-104-082300-
NEW YORK CITY METRO AREA

CITY           SKY/WX    TMP DP  RH WIND       PRES   REMARKS
Central Park     N/A     43  18  36 MISG        N/A
Wall St Helipt CLOUDY    43  23  45 W14       29.93R
Bronx Bot Gard NOT AVBL
LaGuardia APRT CLOUDY    43  18  36 W21       29.91R
Kennedy INTL   CLOUDY    43  16  33 W16G22    29.92R
Breezy Point     N/A     41 N/A N/A W15G24      N/A
Newark/Liberty CLOUDY    41  18  39 W16       29.93R
Teterboro      CLEAR     40  18  41 W8        29.91R WCI  34
$$

NYZ177-179-078>081-082300-
LONG ISLAND NEW YORK

CITY           SKY/WX    TMP DP  RH WIND       PRES   REMARKS
Jones Beach      N/A     41 N/A N/A W14G20      N/A
Matinecock PT  NOT AVBL
Farmingdale    MOCLDY    41  18  39 W10       29.91R
MacArthur/ISP  MOCLDY    40  21  46 W9        29.89R WCI  34
Shirley        CLOUDY    40  21  46 W9        29.90R WCI  34
Westhampton    CLOUDY    38  22  52 W7        29.90R WCI  33
Southampton    NOT AVBL
Bridgehampton  NOT AVBL
East Hampton     N/A     40  22  49 W8        29.87R WCI  34
Montauk          N/A     43  25  49 W14G23    29.87R
$$

NYZ052-065-067-082300-
HUDSON VALLEY

CITY           SKY/WX    TMP DP  RH WIND       PRES   REMARKS
White Plains   PTCLDY    39  18  42 W12G22    29.88R WCI  32
Newburgh       PTCLDY    37  23  56 NW9       29.89R WCI  31
Montgomery     CLEAR     38  20  48 W7        29.88R WCI  33
Poughkeepsie   CLOUDY    38  18  44 W8        29.88R WCI  32
Albany         PTCLDY    34  23  64 W9        29.87R WCI  27
$$

NJZ001-105-106-008-010-013-015-019>022-104-082300-
NEW JERSEY

CITY           SKY/WX    TMP DP  RH WIND       PRES   REMARKS
Newark/Liberty CLOUDY    41  18  39 W16       29.93R
Teterboro      CLEAR     40  18  41 W8        29.91R WCI  34
Caldwell       CLEAR     40  18  41 W7        29.93R
Somerville     CLEAR     38  19  46 SW3       29.93R
Linden           N/A     40  19  43 NW10      29.94R WCI  33
Sussex         CLEAR     38  19  46 VRB6      29.91R WCI  33
Andover          N/A     36  18  48 VRB3      29.92R
Trenton        PTCLDY    40  18  41 W6        29.95R
Millville      PTCLDY    37  29  72 W6        29.99R WCI  32
Atlantic City  PTCLDY    41  25  53 W8        29.97R
Wrightstown    CLEAR     40  18  40 W13G21    29.94R WCI  33
Toms River     MOCLDY    39  24  55 W9        29.96R WCI  33
Belmar         PTCLDY    39  21  48 W14       29.95R WCI  31
$$

PAZ047>061-062-071-082300-
EASTERN PENNSYLVANIA

CITY           SKY/WX    TMP DP  RH WIND       PRES   REMARKS
Philadelphia   MOCLDY    43  18  36 NW8       29.99R
Allentown      CLEAR     38  16  40 W13       29.96R WCI  30
Scranton       CLOUDY    36  17  46 W14       29.93R WCI  27
$$

CTZ002-004>006-009-010-012-RIZ004-006-007-MAZ004-011-015-082300-
SOUTHERN NEW ENGLAND
 IN CT

CITY           SKY/WX    TMP DP  RH WIND       PRES   REMARKS
Bradley INTL   CLEAR     36  25  64 W7        29.84S WCI  30
Hartford       CLOUDY    40  28  62 NW9       29.86R WCI  34
Danbury        CLEAR     38  19  46 W9        29.88R WCI  31
Wtrbury/Oxford PTCLDY    37  19  48 W9        29.86R WCI  31
Bridgeport     CLEAR     41  23  48 MISG      29.88R
Meriden        PTCLDY    40  22  48 SW3       29.86R
New Haven      PTCLDY    41  24  51 W5        29.87R
Chester          N/A     37  23  56 VRB6      29.84S WCI  33
Groton         CLOUDY    43  24  47 W7        29.85R
Wilimantic     CLOUDY    41  25  53 W5        29.84R

 IN RI

CITY           SKY/WX    TMP DP  RH WIND       PRES   REMARKS
Providence     MOCLDY    39  27  62 W8        29.83R WCI  33
Block Island   MOCLDY    43  26  51 W16G26    29.84R
Westerly       CLOUDY    42  22  44 W6        29.85R
 IN MA

CITY           SKY/WX    TMP DP  RH WIND       PRES   REMARKS
Boston         PTCLDY    40  27  59 W10       29.81R WCI  33
Worcester      MOCLDY    34  28  79 W6        29.79R WCI  29
Westfield      MOCLDY    36  28  73 NW8       29.84R WCI  30
Provincetown   PTCLDY    42  28  57 W18G24    29.80R
Nantucket      CLOUDY    44  30  57 W17G26    29.81R
$$

ANZ330-335-338-340-345-350-353-355-082300-
COASTAL MARINE OBSERVATIONS


STATION/POSITION TIME  SKY/WX   TEMP    WIND        PRES    VSBY  WAVE
                                AIR SEA DIR/SP/G                  HT/PER
                 (UTC)          (F)     (DEG/KT/KT) (MB)    (MI)  (FT/S)
NY HARB ENTRANCE 2150            44 52  280/ 19/ 25 1012.8          4/ 8
20 S FIRE ISLAND 2150            45 53  290/ 19/ 23 1012.3          4/ 5
GREAT SOUTH BAY  2115            42 43                N/A
23 SSW MONTAUK P 2150            45 54  270/ 25/ 29 1011.2          5/ 5
15 E BARNEGAT LI 2130               53                N/A           3/ 8
HUDSON CANYON    2050            48 56              1012.3          5/ 5
KINGS POINT      2136            43 47              1012.4
EXECUTION ROCKS  2145            43     250/ 14/ 17   N/A
CENTRAL LI SOUND NOT AVBL
EASTERN LI SOUND NOT AVBL
ROBBINS REEF     2148            42     270/ 17/ 20 1013.4
$$


>>>>>>>>>>>>>>>>>>>>>>>>>>>> KEY <<<<<<<<<<<<<<<<<<<<<<<<<<<
>                                                          <
>     SKY/WX - Sky Condition/Present Weather               <
>     TMP    - Temperature in Fahrenheit                   <
>     DP     - Dew Point in Fahrenheit                     <
>     RH     - Relative Humidity in Percent                <
>     WIND   - Direction (from) and Speed in MPH           <
>     PRES   - Mean Sea Level Pressure (inches of Hg)      <
>     WCI    - Wind Chill Index                            <
>     VSB    - VISIBILITY IN MILES                         <
>     HX     - HEAT INDEX                                  <
>     TC     - TEMPERATURE IN CELSIUS                      <
>     VRB    - VARIABLE WIND DIRECTION                     <
>                                                          <
>>>>>>>>>>>>>>>>>>>>>>>>>>>> KEY <<<<<<<<<<<<<<<<<<<<<<<<<<<



USA.gov is the U.S. government's official web portal to all federal, state and local government web resources and services.